TimeAKDT,TemperatureF,Dew PointF,Humidity,Sea Level PressureIn,VisibilityMPH,Wind Direction,Wind SpeedMPH,Gust SpeedMPH,PrecipitationIn,Events,Conditions,WindDirDegrees,DateUTC
12:53 AM,43.0,37.9,82,29.71,10.0,Calm,Calm,-,N/A,,Overcast,0,2013-10-06 08:53:00
1:53 AM,44.1,37.9,79,29.71,10.0,Calm,Calm,-,N/A,,Overcast,0,2013-10-06 09:53:00
2:53 AM,44.1,37.9,79,29.72,10.0,Calm,Calm,-,0.00,Rain,Light Rain,0,2013-10-06 10:53:00
3:53 AM,45.0,39.0,80,29.72,10.0,Calm,Calm,-,0.00,Rain,Light Rain,0,2013-10-06 11:53:00
4:53 AM,43.0,39.9,89,29.71,10.0,Calm,Calm,-,0.00,,Overcast,0,2013-10-06 12:53:00
5:53 AM,46.9,39.0,74,29.71,10.0,SSW,5.8,-,N/A,,Overcast,200,2013-10-06 13:53:00
6:53 AM,46.0,39.0,76,29.71,10.0,South,8.1,-,N/A,,Mostly Cloudy,180,2013-10-06 14:53:00
7:53 AM,43.0,37.9,82,29.72,10.0,South,3.5,-,N/A,,Overcast,170,2013-10-06 15:53:00
8:53 AM,46.0,39.0,76,29.72,10.0,SW,3.5,-,N/A,,Overcast,220,2013-10-06 16:53:00
9:53 AM,46.0,36.0,68,29.72,10.0,SSW,10.4,-,N/A,,Overcast,210,2013-10-06 17:53:00
10:53 AM,45.0,37.9,76,29.73,10.0,SW,6.9,-,0.00,Rain,Light Rain,230,2013-10-06 18:53:00
11:53 AM,45.0,39.0,80,29.73,10.0,Calm,Calm,-,0.02,Rain,Light Rain,0,2013-10-06 19:53:00
12:53 PM,45.0,39.9,82,29.72,10.0,SSW,3.5,-,0.01,Rain,Light Rain,200,2013-10-06 20:53:00
1:53 PM,45.0,39.0,80,29.72,10.0,SSW,3.5,-,0.01,Rain,Light Rain,200,2013-10-06 21:53:00
2:30 PM,44.6,39.2,81,29.71,10.0,South,4.6,-,0.02,Rain,Light Rain,190,2013-10-06 22:30:00
2:53 PM,44.1,39.9,85,29.71,6.0,South,4.6,-,0.03,Rain,Light Rain,190,2013-10-06 22:53:00
3:38 PM,44.6,39.2,81,29.70,6.0,South,5.8,-,0.04,Rain,Light Rain,170,2013-10-06 23:38:00
3:53 PM,44.1,39.9,85,29.70,6.0,South,8.1,-,0.05,Rain,Light Rain,170,2013-10-06 23:53:00
4:29 PM,42.8,39.2,87,29.69,2.0,SE,6.9,-,0.01,Rain,Light Rain,140,2013-10-07 00:29:00
4:42 PM,42.8,39.2,87,29.69,4.0,SE,5.8,-,0.02,Rain,Light Rain,130,2013-10-07 00:42:00
4:53 PM,43.0,39.0,86,29.70,6.0,ESE,5.8,-,0.02,Rain,Light Rain,120,2013-10-07 00:53:00
5:53 PM,44.1,39.9,85,29.68,10.0,SSE,4.6,-,0.01,,Light Drizzle,150,2013-10-07 01:53:00
6:38 PM,44.6,41.0,87,29.68,5.0,SE,5.8,-,0.03,Rain,Light Rain,140,2013-10-07 02:38:00
6:53 PM,44.1,41.0,89,29.69,10.0,SSE,3.5,-,0.04,Rain,Light Rain,150,2013-10-07 02:53:00
7:53 PM,44.1,41.0,89,29.69,10.0,Calm,Calm,-,0.07,Rain,Light Rain,0,2013-10-07 03:53:00
8:15 PM,44.6,41.0,87,29.69,10.0,North,3.5,-,0.00,Rain,Light Rain,360,2013-10-07 04:15:00
8:47 PM,44.6,41.0,87,29.69,6.0,Calm,Calm,-,0.09,Rain,Rain,0,2013-10-07 04:47:00
8:53 PM,44.1,41.0,89,29.70,6.0,Calm,Calm,-,0.10,Rain,Rain,0,2013-10-07 04:53:00
9:53 PM,45.0,39.9,82,29.70,10.0,South,6.9,-,0.12,Rain,Light Rain,190,2013-10-07 05:53:00
10:14 PM,44.6,39.2,81,29.70,10.0,South,6.9,-,0.00,,Mostly Cloudy,190,2013-10-07 06:14:00
10:40 PM,44.6,37.4,76,29.70,10.0,SSW,9.2,-,0.00,,Mostly Cloudy,210,2013-10-07 06:40:00
10:53 PM,44.1,39.0,82,29.71,10.0,SSW,6.9,-,0.00,,Mostly Cloudy,200,2013-10-07 06:53:00
11:53 PM,44.1,37.9,79,29.72,10.0,SSW,9.2,-,0.00,Rain,Light Rain,200,2013-10-07 07:53:00